Date String (YYYY-MM-DD hh:mm:ss) UTC,Instrument flags,Ambient pressure (hPa),Sample flow (lpm),Bypass flow (lpm),Sample temperature (°C),Ambient temperature (°C),ASC tube jacket temperature (°C),LED temperature (°C),Box temperature (°C),Sample RH (%),Span deviation,Mass concentration (μg/m³),Mass concentration (μg/m³),Mass concentration (μg/m³)
DateTimeUTC,F1_M11,P_M11,Q1_M11,Q2_M11,T1_M11,T2_M11,T3_M11,T4_M11,T5_M11,U1_M11,ZSPAN_M11,X0_M11,X2_M11,X1_M11
2023-01-27 23:00:00,,0815.4,5.00,0.00,22.0,20.5,00.0,30.9,23.7,09.8,0000.0,0001.55,0000.59,0000.30
2023-01-27 23:01:00,,0815.3,5.00,0.00,22.0,20.5,00.0,30.9,23.7,09.9,0000.0,0001.42,0000.57,0000.30
2023-01-27 23:02:00,,0815.3,5.00,0.00,22.0,20.5,00.0,30.9,23.7,10.1,0000.0,0001.42,0000.57,0000.30
2023-01-27 23:03:00,,0815.4,5.00,0.00,22.0,20.6,00.0,30.9,23.8,09.7,0000.0,0001.36,0000.54,0000.30
2023-01-27 23:04:00,,0815.4,5.00,0.00,22.0,20.6,00.0,30.9,23.8,09.9,0000.0,0001.34,0000.53,0000.30
2023-01-27 23:05:00,,0815.7,5.00,0.00,22.0,20.6,00.0,30.9,23.8,09.6,0000.0,0001.47,0000.53,0000.29
2023-01-27 23:06:00,,0816.1,5.01,0.00,22.0,20.7,00.0,30.9,23.8,09.9,0000.0,0001.80,0000.53,0000.29
2023-01-27 23:07:00,,0816.0,4.98,0.00,22.0,20.7,00.0,30.9,23.9,10.1,0000.0,0001.58,0000.48,0000.29
2023-01-27 23:08:00,,0816.0,5.00,0.00,22.0,20.8,00.0,30.9,23.9,10.2,0000.0,0001.54,0000.46,0000.28
2023-01-27 23:09:00,,0815.9,5.00,0.00,22.0,20.8,00.0,30.9,23.9,09.9,0000.0,0001.69,0000.45,0000.29
2023-01-27 23:10:00,,0815.3,5.00,0.00,22.1,20.8,00.0,30.9,23.9,10.1,0000.0,0002.11,0000.43,0000.29
2023-01-27 23:11:00,,0815.3,5.01,0.00,22.1,20.8,00.0,30.9,23.8,10.3,0000.0,0002.23,0000.43,0000.29
2023-01-27 23:12:00,,0815.4,5.02,0.00,22.1,20.8,00.0,30.9,23.8,10.0,0000.0,0002.36,0000.44,0000.29
2023-01-27 23:13:00,,0815.4,5.00,0.00,22.1,20.7,00.0,30.9,23.8,10.3,0000.0,0002.30,0000.41,0000.29
2023-01-27 23:14:00,,0815.5,4.99,0.00,22.0,20.7,00.0,30.9,23.8,09.8,0000.0,0002.29,0000.42,0000.29
2023-01-27 23:15:00,,0815.4,5.00,0.00,22.0,20.7,00.0,30.9,23.8,10.3,0000.0,0002.30,0000.42,0000.30
2023-01-27 23:16:00,,0815.8,5.01,0.00,22.0,20.7,00.0,30.9,23.7,10.3,0000.0,0002.17,0000.42,0000.30
2023-01-27 23:17:00,,0815.4,5.01,0.00,22.0,20.7,00.0,30.9,23.7,10.6,0000.0,0001.86,0000.41,0000.31
2023-01-27 23:18:00,,0815.3,4.99,0.00,22.0,20.6,00.0,30.9,23.8,10.2,0000.0,0001.86,0000.42,0000.31
2023-01-27 23:19:00,,0815.5,4.99,0.00,22.0,20.6,00.0,30.9,23.7,10.2,0000.0,0001.81,0000.41,0000.32
2023-01-27 23:20:00,,0815.4,5.00,0.00,22.0,20.6,00.0,30.9,23.6,10.3,0000.0,0001.79,0000.41,0000.32
2023-01-27 23:21:00,,0815.4,5.00,0.00,22.0,20.5,00.0,30.9,23.7,10.2,0000.0,0001.02,0000.39,0000.32
2023-01-27 23:22:00,,0815.5,5.01,0.00,22.0,20.5,00.0,30.9,23.7,10.2,0000.0,0000.82,0000.38,0000.32
2023-01-27 23:23:00,,0815.7,5.01,0.00,22.0,20.5,00.0,30.9,23.6,10.5,0000.0,0000.64,0000.38,0000.32
2023-01-27 23:24:00,,0815.4,5.00,0.00,22.0,20.6,00.0,30.9,23.6,10.7,0000.0,0000.67,0000.40,0000.32
2023-01-27 23:25:00,,0815.4,5.00,0.00,22.0,20.6,00.0,30.9,23.7,10.2,0000.0,0000.67,0000.40,0000.31
2023-01-27 23:26:00,,0815.4,5.00,0.00,22.0,20.6,00.0,30.9,23.7,10.5,0000.0,0000.71,0000.42,0000.31
2023-01-27 23:27:00,,0815.4,4.99,0.00,22.0,20.6,00.0,30.9,23.7,10.1,0000.0,0000.78,0000.44,0000.31
2023-01-27 23:28:00,,0815.4,5.01,0.00,22.0,20.6,00.0,30.9,23.7,10.2,0000.0,0000.76,0000.46,0000.32
2023-01-27 23:29:00,,0815.4,4.99,0.00,22.0,20.6,00.0,30.9,23.7,10.2,0000.0,0000.73,0000.46,0000.32
2023-01-27 23:30:00,,0815.4,4.99,0.00,22.0,20.6,00.0,30.8,23.8,10.2,0000.0,0000.76,0000.47,0000.32
2023-01-27 23:31:00,,0815.4,5.01,0.00,22.0,20.6,00.0,30.8,23.8,10.2,0000.0,0000.76,0000.48,0000.32
2023-01-27 23:32:00,,0815.4,4.99,0.00,22.0,20.5,00.0,30.8,23.7,10.2,0000.0,0001.10,0000.50,0000.32
2023-01-27 23:33:00,,0815.5,5.01,0.00,22.0,20.5,00.0,30.8,23.7,09.9,0000.0,0001.20,0000.52,0000.33
2023-01-27 23:34:00,,0815.5,5.01,0.00,21.9,20.5,00.0,30.8,23.7,10.2,0000.0,0001.52,0000.52,0000.33
2023-01-27 23:35:00,,0815.4,5.01,0.00,21.9,20.5,00.0,30.8,23.7,10.0,0000.0,0001.86,0000.54,0000.33
2023-01-27 23:36:00,,0815.4,4.99,0.00,21.9,20.5,00.0,30.8,23.7,10.1,0000.0,0001.95,0000.58,0000.34
2023-01-27 23:37:00,,0815.3,4.99,0.00,21.9,20.4,00.0,30.8,23.7,10.1,0000.0,0002.04,0000.61,0000.35
2023-01-27 23:38:00,,0815.2,5.00,0.00,21.9,20.4,00.0,30.8,23.6,10.2,0000.0,0002.40,0000.63,0000.35
2023-01-27 23:39:00,,0815.4,5.00,0.00,21.9,20.4,00.0,30.8,23.6,10.0,0000.0,0002.92,0000.64,0000.34
2023-01-27 23:40:00,,0815.4,5.00,0.00,21.9,20.5,00.0,30.8,23.6,09.8,0000.0,0002.94,0000.64,0000.34
2023-01-27 23:41:00,,0815.4,5.02,0.00,21.9,21.0,00.0,30.8,23.8,09.8,0000.0,0002.94,0000.63,0000.33
2023-01-27 23:42:00,,0815.4,5.00,0.00,22.0,22.0,00.0,30.8,24.0,09.7,0000.0,0002.92,0000.62,0000.33
2023-01-27 23:43:00,,0815.4,5.02,0.00,22.1,22.8,00.0,30.8,24.2,09.9,0000.0,0002.58,0000.61,0000.33
2023-01-27 23:44:00,,0815.4,4.99,0.00,22.2,22.5,00.0,30.9,24.3,10.0,0000.0,0002.51,0000.59,0000.33
2023-01-27 23:45:00,,0815.3,5.03,0.00,22.2,22.1,00.0,30.9,24.2,10.0,0000.0,0002.09,0000.59,0000.33
2023-01-27 23:46:00,,0815.3,5.00,0.00,22.3,21.9,00.0,30.9,24.2,10.1,0000.0,0001.90,0000.57,0000.33
2023-01-27 23:47:00,,0815.3,5.00,0.00,22.3,21.7,00.0,31.0,24.2,09.9,0000.0,0001.87,0000.56,0000.33
2023-01-27 23:48:00,,0815.3,5.02,0.00,22.3,21.5,00.0,31.0,24.2,09.8,0000.0,0001.82,0000.53,0000.32
2023-01-27 23:49:00,,0815.3,4.98,0.00,22.3,21.4,00.0,31.0,24.2,10.0,0000.0,0001.27,0000.50,0000.32
2023-01-27 23:50:00,,0815.3,5.00,0.00,22.3,21.3,00.0,31.0,24.2,09.9,0000.0,0000.96,0000.50,0000.33
2023-01-27 23:51:00,,0815.4,5.01,0.00,22.3,21.2,00.0,31.0,24.2,10.1,0000.0,0001.05,0000.52,0000.34
2023-01-27 23:52:00,,0815.4,5.00,0.00,22.3,21.2,00.0,31.1,24.2,10.1,0000.0,0001.06,0000.53,0000.34
2023-01-27 23:53:00,,0815.3,4.98,0.00,22.3,21.1,00.0,31.1,24.1,09.9,0000.0,0001.08,0000.54,0000.33
2023-01-27 23:54:00,,0815.3,4.99,0.00,22.3,21.0,00.0,31.1,24.1,09.7,0000.0,0001.19,0000.56,0000.33
2023-01-27 23:55:00,,0815.3,5.01,0.00,22.3,21.0,00.0,31.1,24.1,09.7,0000.0,0001.36,0000.61,0000.33
2023-01-27 23:56:00,,0815.3,5.00,0.00,22.3,21.1,00.0,31.1,24.2,09.7,0000.0,0001.31,0000.59,0000.33
2023-01-27 23:57:00,,0815.3,4.99,0.00,22.3,21.1,00.0,31.1,24.2,09.6,0000.0,0001.27,0000.58,0000.34
2023-01-27 23:58:00,,0815.4,5.02,0.00,22.3,21.1,00.0,31.1,24.2,09.7,0000.0,0001.22,0000.57,0000.33
2023-01-27 23:59:00,,0815.3,5.01,0.00,22.4,21.1,00.0,31.1,24.2,09.6,0000.0,0001.16,0000.54,0000.33
